When you browse on this site, cookies collect data to enhance your experience and personalize the content and advertising you see.
Visit our Privacy Policy to learn more. By continuing to use the site, you agree to this use of cookies and data.
  • In Hungary
  • List of Countries
  • For 7 days
  • Water Temperature
  • Weather Map
  • News
  • Weather Widgets
  • user-avatar
    Login

    Hourly Weather Grechuhi

    Today, 23 February, Sunday

    Time Temperature Precipitation Wind Pressure Humidity
    00:00 0°C° 0.7 mm 7 mps 733 mmHg 86%
    01:00 +1°C° 0.7 mm 6 mps 733 mmHg 82%
    02:00 +2°C° 0 mm 5 mps 733 mmHg 78%
    03:00 +1°C° 0 mm 6 mps 732 mmHg 78%
    04:00 +1°C° 0 mm 6 mps 732 mmHg 78%
    05:00 -1°C° 0 mm 6 mps 732 mmHg 78%
    06:00 -1°C° 0 mm 6 mps 732 mmHg 78%
    07:00 -1°C° 0 mm 6 mps 733 mmHg 79%
    08:00 -1°C° 0 mm 6 mps 733 mmHg 80%
    09:00 +1°C° 0 mm 6 mps 733 mmHg 76%
    10:00 +1°C° 0 mm 6 mps 733 mmHg 72%
    11:00 +2°C° 0 mm 6 mps 733 mmHg 69%
    12:00 +1°C° 0.1 mm 6 mps 733 mmHg 75%
    13:00 0°C° 0.1 mm 7 mps 733 mmHg 80%
    14:00 +2°C° 0 mm 7 mps 732 mmHg 84%
    15:00 +1°C° 0.1 mm 6 mps 732 mmHg 83%
    16:00 +1°C° 0.1 mm 6 mps 732 mmHg 82%
    17:00 +1°C° 0.1 mm 6 mps 732 mmHg 81%
    18:00 +1°C° 0 mm 6 mps 732 mmHg 81%
    19:00 +1°C° 0 mm 6 mps 732 mmHg 81%
    20:00 +1°C° 0 mm 5 mps 732 mmHg 81%
    21:00 +1°C° 0 mm 5 mps 732 mmHg 82%
    22:00 +1°C° 0 mm 4 mps 732 mmHg 83%
    23:00 0°C° 0 mm 4 mps 731 mmHg 83%

    Tomorrow, 24 February, Monday

    Time Temperature Precipitation Wind Pressure Humidity
    00:00 0°C° 0 mm 4 mps 731 mmHg 85%
    01:00 0°C° 0 mm 4 mps 731 mmHg 86%
    02:00 0°C° 0 mm 4 mps 731 mmHg 87%
    03:00 0°C° 0 mm 4 mps 731 mmHg 88%
    04:00 0°C° 0 mm 4 mps 731 mmHg 89%
    05:00 0°C° 0 mm 4 mps 732 mmHg 90%
    06:00 +1°C° 0 mm 3 mps 732 mmHg 88%
    07:00 +1°C° 0 mm 3 mps 733 mmHg 87%
    08:00 0°C° 0 mm 3 mps 734 mmHg 86%
    09:00 0°C° 0 mm 4 mps 734 mmHg 80%
    10:00 0°C° 0 mm 5 mps 735 mmHg 74%
    11:00 +1°C° 0 mm 5 mps 735 mmHg 68%
    12:00 +1°C° 0 mm 5 mps 736 mmHg 63%
    13:00 +1°C° 0 mm 6 mps 737 mmHg 59%
    14:00 +1°C° 0 mm 6 mps 737 mmHg 54%
    15:00 +1°C° 0 mm 5 mps 738 mmHg 57%
    16:00 0°C° 0 mm 5 mps 738 mmHg 59%
    17:00 0°C° 0 mm 4 mps 739 mmHg 62%
    18:00 -1°C° 0 mm 4 mps 739 mmHg 65%
    19:00 -2°C° 0 mm 4 mps 740 mmHg 67%
    20:00 -2°C° 0 mm 4 mps 740 mmHg 70%
    21:00 -2°C° 0 mm 4 mps 741 mmHg 72%
    22:00 -1°C° 0 mm 3 mps 741 mmHg 74%
    23:00 -2°C° 0 mm 3 mps 741 mmHg 76%

    Day after tomorrow, 25 February, Tuesday

    Time Temperature Precipitation Wind Pressure Humidity
    00:00 -2°C° 0 mm 3 mps 741 mmHg 77%
    01:00 -2°C° 0 mm 2 mps 741 mmHg 78%
    02:00 -2°C° 0 mm 2 mps 741 mmHg 79%
    03:00 -2°C° 0 mm 2 mps 741 mmHg 80%
    04:00 -2°C° 0 mm 2 mps 741 mmHg 82%
    05:00 -3°C° 0 mm 2 mps 740 mmHg 84%
    06:00 -2°C° 0 mm 2 mps 740 mmHg 82%
    07:00 -2°C° 0 mm 2 mps 740 mmHg 81%
    08:00 -2°C° 0 mm 2 mps 739 mmHg 80%
    09:00 -1°C° 0 mm 2 mps 739 mmHg 73%
    10:00 0°C° 0 mm 3 mps 738 mmHg 66%
    11:00 +1°C° 0 mm 3 mps 738 mmHg 59%
    12:00 0°C° 0 mm 4 mps 737 mmHg 58%
    13:00 +1°C° 0 mm 4 mps 736 mmHg 57%
    14:00 +1°C° 0 mm 4 mps 736 mmHg 56%
    15:00 0°C° 0.1 mm 4 mps 735 mmHg 68%
    16:00 -1°C° 0.1 mm 4 mps 734 mmHg 81%
    17:00 -1°C° 0.1 mm 5 mps 733 mmHg 94%
    18:00 -1°C° 0.4 mm 5 mps 732 mmHg 95%
    19:00 -1°C° 0.4 mm 5 mps 731 mmHg 95%
    20:00 -1°C° 0.4 mm 4 mps 731 mmHg 96%
    21:00 -1°C° 0.4 mm 4 mps 730 mmHg 96%
    22:00 0°C° 0.4 mm 4 mps 729 mmHg 96%
    23:00 +1°C° 0.4 mm 3 mps 729 mmHg 96%

    26 February, Wednesday

    Time Temperature Precipitation Wind Pressure Humidity
    00:00 +1°C° 0.1 mm 3 mps 729 mmHg 95%
    01:00 0°C° 0.1 mm 3 mps 729 mmHg 93%
    02:00 -1°C° 0.1 mm 3 mps 728 mmHg 91%
    03:00 0°C° 0 mm 3 mps 728 mmHg 89%
    04:00 -1°C° 0 mm 4 mps 728 mmHg 88%
    05:00 -1°C° 0 mm 4 mps 728 mmHg 86%
    06:00 -1°C° 0 mm 4 mps 728 mmHg 85%
    07:00 -1°C° 0 mm 4 mps 728 mmHg 84%
    08:00 -1°C° 0 mm 4 mps 728 mmHg 83%
    09:00 -1°C° 0 mm 5 mps 728 mmHg 80%
    10:00 0°C° 0 mm 5 mps 728 mmHg 77%
    11:00 0°C° 0 mm 5 mps 728 mmHg 74%
    12:00 -1°C° 0 mm 6 mps 728 mmHg 73%
    13:00 -1°C° 0 mm 6 mps 728 mmHg 72%
    14:00 -1°C° 0 mm 6 mps 728 mmHg 71%
    15:00 0°C° 0 mm 5 mps 728 mmHg 72%
    16:00 0°C° 0 mm 5 mps 727 mmHg 73%
    17:00 0°C° 0 mm 5 mps 727 mmHg 75%
    18:00 -1°C° 0 mm 5 mps 727 mmHg 77%
    19:00 -1°C° 0 mm 5 mps 728 mmHg 78%
    20:00 -1°C° 0 mm 5 mps 728 mmHg 80%
    21:00 -1°C° 0.2 mm 5 mps 728 mmHg 84%
    22:00 -2°C° 0.2 mm 6 mps 729 mmHg 88%
    23:00 -2°C° 0.2 mm 6 mps 729 mmHg 91%

    27 February, Thursday

    Time Temperature Precipitation Wind Pressure Humidity
    00:00 -3°C° 0.2 mm 6 mps 729 mmHg 91%
    01:00 -2°C° 0.2 mm 5 mps 730 mmHg 91%
    02:00 -2°C° 0.2 mm 5 mps 731 mmHg 91%
    03:00 -3°C° 0.1 mm 4 mps 731 mmHg 89%
    04:00 -4°C° 0.1 mm 4 mps 732 mmHg 87%
    05:00 -4°C° 0.1 mm 4 mps 733 mmHg 85%
    06:00 -4°C° 0 mm 4 mps 733 mmHg 84%
    07:00 -5°C° 0 mm 3 mps 734 mmHg 82%
    08:00 -5°C° 0 mm 3 mps 735 mmHg 81%
    09:00 -4°C° 0 mm 3 mps 735 mmHg 78%
    10:00 -4°C° 0 mm 3 mps 736 mmHg 75%
    11:00 -2°C° 0 mm 3 mps 736 mmHg 72%
    12:00 -2°C° 0 mm 3 mps 737 mmHg 70%
    13:00 -2°C° 0 mm 3 mps 737 mmHg 67%
    14:00 -2°C° 0 mm 3 mps 737 mmHg 65%
    15:00 -2°C° 0 mm 2 mps 737 mmHg 66%
    16:00 -2°C° 0 mm 2 mps 737 mmHg 67%
    17:00 -3°C° 0 mm 2 mps 737 mmHg 68%
    18:00 -3°C° 0 mm 2 mps 738 mmHg 71%
    19:00 -2°C° 0 mm 1 mps 738 mmHg 74%
    20:00 -3°C° 0 mm 1 mps 738 mmHg 77%
    21:00 -3°C° 0 mm 1 mps 738 mmHg 77%
    22:00 -5°C° 0 mm 2 mps 738 mmHg 78%
    23:00 -5°C° 0 mm 2 mps 738 mmHg 78%

    28 February, Friday

    Time Temperature Precipitation Wind Pressure Humidity
    00:00 -5°C° 0 mm 2 mps 738 mmHg 78%
    01:00 -5°C° 0 mm 2 mps 738 mmHg 79%
    02:00 -5°C° 0 mm 2 mps 737 mmHg 79%
    03:00 -5°C° 0 mm 2 mps 737 mmHg 78%
    04:00 -5°C° 0 mm 2 mps 737 mmHg 77%
    05:00 -6°C° 0 mm 2 mps 737 mmHg 77%
    06:00 -6°C° 0 mm 2 mps 737 mmHg 77%
    07:00 -5°C° 0 mm 2 mps 737 mmHg 77%
    08:00 -5°C° 0 mm 2 mps 737 mmHg 78%
    09:00 -6°C° 0 mm 3 mps 737 mmHg 72%
    10:00 -5°C° 0 mm 3 mps 737 mmHg 66%
    11:00 -4°C° 0 mm 3 mps 737 mmHg 60%
    12:00 -4°C° 0 mm 3 mps 737 mmHg 58%
    13:00 -3°C° 0 mm 4 mps 737 mmHg 56%
    14:00 -3°C° 0 mm 4 mps 737 mmHg 54%
    15:00 -2°C° 0.1 mm 3 mps 737 mmHg 55%
    16:00 -4°C° 0.1 mm 3 mps 737 mmHg 57%
    17:00 -4°C° 0.1 mm 3 mps 737 mmHg 59%
    18:00 -4°C° 0 mm 3 mps 738 mmHg 63%
    19:00 -5°C° 0 mm 3 mps 738 mmHg 67%
    20:00 -5°C° 0 mm 3 mps 738 mmHg 71%
    21:00 -5°C° 0 mm 3 mps 738 mmHg 72%
    22:00 -5°C° 0 mm 3 mps 738 mmHg 73%
    23:00 -6°C° 0 mm 3 mps 738 mmHg 74%
    Show more